UPS562 KPBI-KSDF

Flight info

Callsign UPS562
Flight time N/A
Altitude 34000
Route TBIRD7 SHRKS Q77 TEUFL/N0470F350 Q77 WIGVO/N0470F340 GLAZR LEDDL1
Aircraft B738/M-SDE2E3FGHIRWXY/LB1

Departure

Time 2026-05-06 07:38
Airport Palm Beach International Airport (KPBI)

Arrival

Time N/A
Airport Louisville Muhammad Ali International Airport (KSDF)
Time Latitude Longitude Altitude Speed Heading
2026-05-06 07:13 26.68565 -80.07945 21 ft 0 kts 93°
2026-05-06 07:22 26.68566 -80.07953 21 ft 4 kts 95°
2026-05-06 07:22 26.68570 -80.07981 21 ft 4 kts 103°
2026-05-06 07:22 26.68575 -80.08009 21 ft 4 kts 92°
2026-05-06 07:22 26.68571 -80.08034 21 ft 4 kts 45°
2026-05-06 07:23 26.68551 -80.08042 21 ft 4 kts 348°
2026-05-06 07:23 26.68526 -80.08034 24 ft 4 kts 339°
2026-05-06 07:23 26.68501 -80.08024 22 ft 4 kts 351°
2026-05-06 07:23 26.68475 -80.08023 23 ft 4 kts
2026-05-06 07:24 26.68451 -80.08025 22 ft 2 kts
2026-05-06 07:24 26.68450 -80.08025 23 ft 1 kts
2026-05-06 07:27 26.68451 -80.08025 21 ft 1 kts
2026-05-06 07:27 26.68513 -80.08020 21 ft 12 kts
2026-05-06 07:27 26.68588 -80.08004 21 ft 8 kts 343°
2026-05-06 07:28 26.68578 -80.08018 21 ft 4 kts 189°
2026-05-06 07:28 26.68569 -80.08019 21 ft 0 kts 185°
2026-05-06 07:31 26.68561 -80.08019 21 ft 5 kts 185°
2026-05-06 07:31 26.68481 -80.08024 21 ft 19 kts 182°
2026-05-06 07:32 26.68343 -80.08038 21 ft 14 kts 207°
2026-05-06 07:32 26.68315 -80.08145 21 ft 16 kts 270°
2026-05-06 07:32 26.68320 -80.08307 21 ft 25 kts 273°
2026-05-06 07:32 26.68331 -80.08534 21 ft 33 kts 273°
2026-05-06 07:33 26.68344 -80.08816 21 ft 39 kts 272°
2026-05-06 07:33 26.68356 -80.09123 21 ft 38 kts 272°
2026-05-06 07:33 26.68368 -80.09392 21 ft 33 kts 272°
2026-05-06 07:33 26.68379 -80.09637 23 ft 31 kts 273°
2026-05-06 07:34 26.68390 -80.09869 21 ft 29 kts 273°
2026-05-06 07:34 26.68399 -80.10088 21 ft 27 kts 274°
2026-05-06 07:34 26.68408 -80.10291 22 ft 24 kts 273°
2026-05-06 07:34 26.68414 -80.10439 21 ft 8 kts 239°
2026-05-06 07:35 26.68404 -80.10444 21 ft 0 kts 188°
2026-05-06 07:36 26.68388 -80.10446 22 ft 9 kts 185°
2026-05-06 07:37 26.68310 -80.10412 21 ft 12 kts 121°
2026-05-06 07:37 26.68303 -80.10369 22 ft 0 kts 92°
2026-05-06 07:37 26.68303 -80.10351 21 ft 16 kts 92°
2026-05-06 07:37 26.68283 -80.09874 21 ft 105 kts 94°
2026-05-06 07:38 26.68231 -80.08771 91 ft 173 kts 93°
2026-05-06 07:38 26.68093 -80.07377 931 ft 181 kts 92°
2026-05-06 07:38 26.68141 -80.06056 2375 ft 160 kts 81°
2026-05-06 07:38 26.68346 -80.04812 3176 ft 175 kts 69°
2026-05-06 07:39 26.68960 -80.03486 3470 ft 208 kts 63°
2026-05-06 07:39 26.69685 -80.01965 3704 ft 233 kts 63°
2026-05-06 07:39 26.70451 -80.00351 4204 ft 242 kts 61°
2026-05-06 07:39 26.71554 -79.98903 4785 ft 248 kts 39°
2026-05-06 07:40 26.72934 -79.97719 5382 ft 252 kts 37°
2026-05-06 07:40 26.74529 -79.96908 5905 ft 258 kts
2026-05-06 07:40 26.76338 -79.96655 6543 ft 260 kts
2026-05-06 07:40 26.78076 -79.97007 7067 ft 260 kts 332°
2026-05-06 07:41 26.79446 -79.98280 7682 ft 256 kts 304°
2026-05-06 07:41 26.80267 -80.00048 8249 ft 260 kts 289°
2026-05-06 07:41 26.80892 -80.02030 8567 ft 278 kts 287°
2026-05-06 07:41 26.81505 -80.04117 9360 ft 282 kts 287°
2026-05-06 07:42 26.82123 -80.06194 10308 ft 282 kts 287°
2026-05-06 07:42 26.82767 -80.08331 10720 ft 302 kts 287°
2026-05-06 07:42 26.83468 -80.10644 10921 ft 327 kts 288°
2026-05-06 07:42 26.84233 -80.13146 11098 ft 350 kts 288°
2026-05-06 07:43 26.85046 -80.15794 11324 ft 368 kts 288°
2026-05-06 07:43 26.85890 -80.18534 11850 ft 374 kts 288°
2026-05-06 07:43 26.86741 -80.21290 12578 ft 374 kts 288°
2026-05-06 07:43 26.87589 -80.24040 13316 ft 374 kts 288°
2026-05-06 07:44 26.88442 -80.26806 13957 ft 376 kts 288°
2026-05-06 07:44 26.89295 -80.29581 14511 ft 378 kts 288°
2026-05-06 07:44 26.90156 -80.32373 15074 ft 380 kts 289°
2026-05-06 07:44 26.91407 -80.34981 15592 ft 386 kts 307°
2026-05-06 07:45 26.93351 -80.37073 16163 ft 391 kts 321°
2026-05-06 07:45 26.95764 -80.38524 16715 ft 398 kts 334°
2026-05-06 07:45 26.98360 -80.39637 17238 ft 401 kts 335°
2026-05-06 07:45 27.00995 -80.40720 17726 ft 405 kts 336°
2026-05-06 07:46 27.03643 -80.41813 18217 ft 407 kts 335°
2026-05-06 07:46 27.06304 -80.42931 18652 ft 409 kts 335°
2026-05-06 07:46 27.08966 -80.44067 19129 ft 409 kts 335°
2026-05-06 07:46 27.11626 -80.45212 19610 ft 409 kts 335°
2026-05-06 07:47 27.14252 -80.46345 20062 ft 410 kts 334°
2026-05-06 07:47 27.16914 -80.47507 20521 ft 411 kts 334°
2026-05-06 07:47 27.19563 -80.48717 20942 ft 412 kts 333°
2026-05-06 07:47 27.22217 -80.49952 21365 ft 413 kts 333°
2026-05-06 07:48 27.24873 -80.51190 21789 ft 413 kts 333°
2026-05-06 07:48 27.27535 -80.52423 22197 ft 414 kts 333°
2026-05-06 07:48 27.30205 -80.53655 22599 ft 415 kts 333°
2026-05-06 07:48 27.32874 -80.54898 22987 ft 415 kts 332°
2026-05-06 07:49 27.35515 -80.56216 23382 ft 415 kts 331°
2026-05-06 07:49 27.38138 -80.57569 23707 ft 416 kts 331°
2026-05-06 07:49 27.40777 -80.58937 23983 ft 417 kts 331°
2026-05-06 07:49 27.43421 -80.60297 24236 ft 419 kts 331°
2026-05-06 07:50 27.46083 -80.61656 24482 ft 421 kts 331°
2026-05-06 07:50 27.48757 -80.63017 24730 ft 422 kts 331°
2026-05-06 07:50 27.51423 -80.64407 24987 ft 422 kts 328°
2026-05-06 07:50 27.53801 -80.66297 25199 ft 417 kts 315°
2026-05-06 07:51 27.55897 -80.68498 25463 ft 418 kts 315°
2026-05-06 07:51 27.58094 -80.70722 25685 ft 420 kts 316°
2026-05-06 07:51 27.60262 -80.72879 25902 ft 422 kts 316°
2026-05-06 07:51 27.62471 -80.75062 26127 ft 423 kts 316°
2026-05-06 07:52 27.64692 -80.77255 26334 ft 424 kts 316°
2026-05-06 07:52 27.66915 -80.79452 26548 ft 426 kts 316°
2026-05-06 07:52 27.69148 -80.81664 26754 ft 427 kts 316°
2026-05-06 07:52 27.71383 -80.83882 26950 ft 429 kts 316°
2026-05-06 07:53 27.73631 -80.86114 27154 ft 430 kts 316°
2026-05-06 07:53 27.75872 -80.88341 27415 ft 429 kts 316°
2026-05-06 07:53 27.78109 -80.90565 27790 ft 427 kts 316°
2026-05-06 07:53 27.80330 -80.92774 28214 ft 423 kts 316°
2026-05-06 07:54 27.82544 -80.94964 28567 ft 422 kts 318°
2026-05-06 07:54 27.84937 -80.96904 28828 ft 425 kts 324°
2026-05-06 07:54 27.86610 -80.98067 29032 ft 426 kts 326°
2026-05-06 07:54 27.89154 -80.99769 29353 ft 425 kts 326°
2026-05-06 07:55 27.92565 -81.02034 29849 ft 423 kts 326°
2026-05-06 07:55 27.95055 -81.03708 30184 ft 422 kts 326°
2026-05-06 07:55 27.96759 -81.04866 30376 ft 422 kts 326°
2026-05-06 07:55 27.99260 -81.06581 30704 ft 420 kts 325°
2026-05-06 07:56 28.01751 -81.08301 31070 ft 417 kts 325°
2026-05-06 07:56 28.04217 -81.10010 31450 ft 415 kts 325°
2026-05-06 07:56 28.06676 -81.11716 31809 ft 413 kts 325°
2026-05-06 07:56 28.09122 -81.13416 32197 ft 411 kts 325°
2026-05-06 07:57 28.11518 -81.15081 32659 ft 406 kts 325°
2026-05-06 07:57 28.13916 -81.16747 33098 ft 403 kts 325°
2026-05-06 07:57 28.16302 -81.18407 33428 ft 402 kts 325°
2026-05-06 07:57 28.18686 -81.20067 33697 ft 402 kts 325°
2026-05-06 07:58 28.21075 -81.21730 33975 ft 402 kts 325°
2026-05-06 07:58 28.23461 -81.23393 34068 ft 404 kts 325°
2026-05-06 07:58 28.28256 -81.26736 34083 ft 402 kts 325°
2026-05-06 07:59 28.33005 -81.30048 34083 ft 398 kts 325°
2026-05-06 07:59 28.37901 -81.32985 34087 ft 398 kts 332°
2026-05-06 08:00 28.42988 -81.35491 34088 ft 397 kts 332°
2026-05-06 08:00 28.47904 -81.37918 34081 ft 395 kts 332°
2026-05-06 08:01 28.52980 -81.40487 34082 ft 394 kts 332°
2026-05-06 08:01 28.57978 -81.43044 34080 ft 393 kts 331°
2026-05-06 08:02 28.62969 -81.45606 34086 ft 394 kts 331°
2026-05-06 08:02 28.67968 -81.48174 34083 ft 395 kts 331°
2026-05-06 08:03 28.72929 -81.50726 34088 ft 396 kts 331°
2026-05-06 08:03 28.77945 -81.53307 34083 ft 395 kts 331°
2026-05-06 08:04 28.82956 -81.55889 34084 ft 395 kts 331°
2026-05-06 08:04 28.87928 -81.58454 34088 ft 394 kts 331°
2026-05-06 08:05 28.93002 -81.60856 34074 ft 400 kts 340°
2026-05-06 08:05 28.98604 -81.61594 34084 ft 408 kts 348°
2026-05-06 08:06 29.04265 -81.62041 34098 ft 406 kts 348°
2026-05-06 08:06 29.09889 -81.62506 34085 ft 404 kts 348°
2026-05-06 08:07 29.15483 -81.62999 34093 ft 402 kts 348°
2026-05-06 08:07 29.21058 -81.63505 34097 ft 401 kts 348°
2026-05-06 08:08 29.21996 -81.63591 34096 ft 401 kts 348°